Location: Biltmore Gardens
(41.6070°N, 83.4666°W)
Time: 00:56:14
(UTC+00:00)

N. Korean satellite - Pass Details

Date: 06 March 2021
Orbit: 453 x 499 km, 97.2° (Epoch: 11 April)

Event Time Altitude Azimuth Distance (km) Brightness Sun altitude
Rises 10:21:53 0° 24° (NNE) 2,536 10.7 -19.1°
Reaches altitude 10° 10:24:09 10° 36° (NE) 1,661 9.9 -18.7°
Maximum altitude 10:27:15 27° 96° (E) 959 8.8 -18.2°
Drops below altitude 10° 10:30:21 10° 156° (SSE) 1,671 9.5 -17.6°
Sets 10:32:38 0° 169° (SSE) 2,554 10.3 -17.2°
